EW6866 Weather Reports


time (UTC)temp
C
wind
direction
speed
KPH
gust
KPH
rain 1hr
cm
rain 24hr
cm
rain mn
cm
humidity
%
barometer
mb
20260903151525 32 280 0.0 8.0 0.00 0.00 0.00 78 1016.5
20260903150004 31 159 0.0 4.8 0.00 0.00 0.00 80 1016.4
20260903144503 30 174 0.0 3.2 0.00 0.00 0.00 84 1016.3
20260903143004 30 197 0.0 6.4 0.00 0.00 0.00 83 1016.4
20260903141504 29 181 0.0 4.8 0.00 0.00 0.00 84 1016.5
20260903140004 28 187 0.0 3.2 0.00 0.00 0.00 86 1016.2
20260903134504 28 169 0.0 6.4 0.00 0.00 0.00 87 1016.2
20260903133004 27 243 0.0 4.8 0.00 0.00 0.00 89 1016.2
20260903131503 27 159 0.0 4.8 0.00 0.00 0.00 91 1016.4
20260903130025 26 178 0.0 3.2 0.00 0.00 0.00 93 1016.5
20260903124504 26 160 0.0 4.8 0.00 0.00 0.00 95 1016.5
20260903123004 26 178 0.0 3.2 0.00 0.00 0.00 97 1016.7
20260903121504 25 141 0.0 1.6 0.00 0.00 0.00 98 1016.7
20260903120005 25 0 0.0 0.0 0.00 0.00 0.00 98 1016.7
20260903114503 24 0 0.0 0.0 0.00 0.00 0.00 98 1016.6
20260903113004 24 0 0.0 0.0 0.00 0.00 0.00 98 1016.4
20260903111504 24 0 0.0 0.0 0.00 0.00 0.00 98 1016.2
20260903110003 24 0 0.0 0.0 0.00 0.00 0.00 98 1016.0
20260903104504 23 0 0.0 0.0 0.00 0.00 0.00 98 1015.7
20260903103004 24 0 0.0 0.0 0.00 0.00 0.00 98 1015.6
20260903101503 23 0 0.0 0.0 0.00 0.00 0.00 98 1015.6
20260903100004 23 0 0.0 0.0 0.00 0.00 0.00 97 1015.6
20260903094503 24 0 0.0 0.0 0.00 0.00 0.00 97 1015.4
20260903093003 24 0 0.0 0.0 0.00 0.00 0.00 98 1015.5
20260903091504 24 0 0.0 0.0 0.00 0.00 0.00 98 1015.4
20260903090024 24 0 0.0 0.0 0.00 0.00 0.00 97 1015.2
20260903084503 24 0 0.0 0.0 0.00 0.00 0.00 97 1015.2
20260903083004 24 0 0.0 0.0 0.00 0.00 0.00 97 1015.2
20260903081503 24 0 0.0 0.0 0.00 0.00 0.00 97 1015.2
20260903080004 24 0 0.0 0.0 0.00 0.00 0.00 97 1015.2
20260903074505 25 0 0.0 0.0 0.00 0.00 0.00 97 1015.1
20260903073006 25 0 0.0 0.0 0.00 0.00 0.00 97 1015.4
20260903071505 25 0 0.0 0.0 0.00 0.00 0.00 97 1015.1
20260903070005 25 0 0.0 0.0 0.00 0.00 0.00 97 1015.3
20260903064506 25 0 0.0 0.0 0.00 0.00 0.00 97 1015.3
20260903063005 25 0 0.0 0.0 0.00 0.00 0.00 97 1015.4
20260903061505 25 0 0.0 0.0 0.00 0.00 0.00 97 1015.5
20260903060005 25 0 0.0 0.0 0.00 0.00 0.00 97 1015.5
20260903054527 25 0 0.0 0.0 0.00 0.00 0.00 96 1015.5
20260903053005 26 0 0.0 0.0 0.00 0.00 0.00 97 1015.4
20260903051505 26 0 0.0 0.0 0.00 0.00 0.00 97 1015.6
20260903050005 26 0 0.0 0.0 0.00 0.00 0.00 97 1015.8
20260903044526 26 0 0.0 0.0 0.00 0.00 0.00 97 1015.7
20260903043005 26 0 0.0 0.0 0.00 0.00 0.00 96 1015.8
20260903041505 26 0 0.0 0.0 0.00 0.00 0.00 97 1015.8
20260903040008 26 0 0.0 0.0 0.00 0.00 0.00 96 1015.7
20260903034505 26 0 0.0 0.0 0.00 0.00 0.00 96 1015.6
20260903033005 26 0 0.0 0.0 0.00 0.00 0.00 96 1015.7
20260903031505 26 0 0.0 0.0 0.00 0.00 0.00 96 1015.5
20260903030005 26 0 0.0 0.0 0.00 0.00 0.00 95 1015.6
20260903024505 26 0 0.0 0.0 0.00 0.00 0.00 95 1015.7
20260903023004 26 0 0.0 0.0 0.00 0.00 0.00 95 1016.0
20260903021504 26 0 0.0 0.0 0.00 0.00 0.00 94 1016.1
20260903020005 27 0 0.0 0.0 0.00 0.00 0.00 94 1016.2
20260903014504 27 0 0.0 0.0 0.00 0.00 0.00 93 1016.2
20260903013004 27 0 0.0 0.0 0.00 0.00 0.00 93 1016.1
20260903011505 27 0 0.0 0.0 0.00 0.00 0.00 92 1016.1
20260903010004 27 0 0.0 0.0 0.00 0.00 0.00 91 1015.5
20260903004504 27 77 0.0 1.6 0.00 0.00 0.00 90 1015.0
20260903003005 28 66 0.0 1.6 0.00 0.00 0.00 90 1015.0
20260903001504 28 0 0.0 0.0 0.00 0.00 0.00 89 1015.2
20260903000004 28 0 0.0 0.0 0.00 0.00 0.00 88 1015.7
20260902234505 28 65 0.0 1.6 0.00 0.00 0.00 88 1015.9
20260902233026 28 79 0.0 1.6 0.00 0.00 0.00 87 1016.1
20260902231525 29 63 0.0 1.6 0.00 0.00 0.00 87 1016.4
20260902230005 29 71 0.0 1.6 0.00 0.00 0.00 86 1016.0
20260902224505 30 81 0.0 3.2 0.00 0.00 0.00 84 1015.9
20260902223025 30 59 0.0 4.8 0.00 0.00 0.00 82 1016.0
20260902221504 30 59 1.6 3.2 0.00 0.00 0.00 82 1015.8
20260902220005 31 60 1.6 4.8 0.00 0.00 0.00 80 1015.8
20260902214505 31 52 0.0 3.2 0.00 0.00 0.00 80 1015.9
20260902213004 32 41 0.0 3.2 0.00 0.00 0.00 79 1016.0
20260902211504 32 46 0.0 3.2 0.00 0.00 0.00 77 1015.8
20260902210004 32 56 1.6 6.4 0.00 0.00 0.00 77 1015.3
20260902204505 33 60 0.0 3.2 0.00 0.00 0.00 77 1014.9
20260902203025 33 62 0.0 1.6 0.00 0.00 0.00 74 1014.9
20260902201505 35 273 0.0 1.6 0.00 0.00 0.00 70 1015.0
20260902200004 36 267 0.0 6.4 0.00 0.00 0.00 65 1015.1
20260902194505 36 109 0.0 1.6 0.00 0.00 0.00 57 1015.3
20260902193004 36 59 0.0 1.6 0.00 0.00 0.00 60 1015.5
20260902191504 36 85 0.0 1.6 0.00 0.00 0.00 58 1015.6
20260902190004 36 96 0.0 3.2 0.00 0.00 0.00 58 1015.8
20260902184505 36 138 0.0 3.2 0.00 0.00 0.00 61 1015.7
20260902183004 36 117 0.0 3.2 0.00 0.00 0.00 60 1015.8
20260902181504 35 75 0.0 3.2 0.00 0.00 0.00 61 1015.8
20260902180006 36 106 0.0 1.6 0.00 0.00 0.00 59 1015.9
20260902174505 36 145 0.0 1.6 0.00 0.00 0.00 62 1015.8
20260902173005 35 75 0.0 3.2 0.00 0.00 0.00 63 1015.8
20260902171504 34 79 0.0 3.2 0.00 0.00 0.00 67 1015.9
20260902170004 34 91 0.0 3.2 0.00 0.00 0.00 68 1015.9
20260902164504 34 76 0.0 1.6 0.00 0.00 0.00 66 1016.0
20260902163004 33 80 0.0 1.6 0.00 0.00 0.00 73 1016.1
20260902161504 33 118 0.0 3.2 0.00 0.00 0.00 72 1016.2
20260902160007 33 138 0.0 4.8 0.00 0.00 0.00 73 1016.2
20260902154504 33 170 0.0 6.4 0.00 0.00 0.00 71 1016.3
20260902153026 33 0 0.0 0.0 0.00 0.00 0.00 72 1016.3